+ View the NASA Portal
+ Center for Near-Earth Object Studies
IMPORTANT:
The SSD Announcement email list is now available. Major changes are coming in the near future, including possible hostname and/or URL changes. To be notified of such changes, subscribe to this email list.
Please visit
this page
for more details.
Don't show this message again
JPL Small-Body Database Browser
Search:
[
help
]
413204 (2003 BA14)
Classification:
Main-belt Asteroid
SPK-ID:
2413204
[
Ephemeris
|
Orbit Diagram
|
Orbital Elements
|
Mission Design
|
Physical Parameters
|
Discovery Circumstances
|
Close-Approach Data
]
[ show orbit diagram ]
Orbital Elements at Epoch 2458600.5 (2019-Apr-27.0) TDB
Reference:
JPL 15
(heliocentric ecliptic J2000)
Element
Value
Uncertainty (1-sigma)
Units
e
.2075959038711949
6.4436e-08
a
2.614489951384088
2.041e-08
au
q
2.071732546764352
1.6874e-07
au
i
2.743354765748977
1.0355e-05
deg
node
198.8492095780001
0.00013139
deg
peri
297.1515240145443
0.00013455
deg
M
295.364748005164
2.5667e-05
deg
t
p
2458877.733583031975
(2020-Jan-29.23358303)
0.00011096
TDB
period
1544.112335161696
4.23
1.8081e-05
4.95e-08
d
yr
n
.2331436591770388
2.73e-09
deg/d
Q
3.157247356003824
2.4647e-08
au
Orbit Determination Parameters
# obs. used (total)
143
data-arc span
6164 days (16.88 yr)
first obs. used
2003-01-11
last obs. used
2019-11-27
planetary ephem.
DE431
SB-pert. ephem.
SB431-N16
condition code
0
norm. resid. RMS
.73052
source
ORB
producer
Otto Matic
solution date
2019-Dec-05 01:19:08
Additional Information
Earth MOID
= 1.08769 au
Jupiter MOID
= 1.89532 au
T_jup
= 3.375
[ show covariance matrix ]
[
Ephemeris
|
Orbit Diagram
|
Orbital Elements
|
Mission Design
|
Physical Parameters
|
Discovery Circumstances
|
Close-Approach Data
]
Physical Parameter Table
Parameter
Symbol
Value
Units
Sigma
Reference
Notes
absolute magnitude
H
17.2
n/a
MPO455941
413204 (2003 BA14)
Discovered 2003-Jan-11 by Spacewatch at Kitt Peak
Reference:
Last Updated:
2014-11-10
[ show close-approach data ]
Alternate Designations
2003 BA14
= 2012 HB44
[
Ephemeris
|
Orbit Diagram
|
Orbital Elements
|
Mission Design
|
Physical Parameters
|
Discovery Circumstances
|
Close-Approach Data
]
2019-Dec-12 19:02 UT
(server date/time)
Site Manager:
Ryan S. Park
Webmaster
:
Alan B. Chamberlin